UAL655 KDEN-KLAS

Flight info

Callsign UAL655
Flight time 1h 30m
Altitude 34000
Route CONNR8 WERNR ZAKRY CHESZ GGAPP CHOWW4
Aircraft A21N/M-SDE2E3FGHIRWXY/LB1

Departure

Time 2026-05-06 03:45
Airport Denver International Airport (KDEN)

Arrival

Time 2026-05-06 05:15
Airport Harry Reid International Airport (KLAS)
Time Latitude Longitude Altitude Speed Heading
2026-05-06 02:56 39.85809 -104.67080 5371 ft 0 kts
2026-05-06 03:27 39.85792 -104.67081 5370 ft 4 kts 359°
2026-05-06 03:27 39.85765 -104.67080 5371 ft 4 kts 359°
2026-05-06 03:28 39.85744 -104.67080 5369 ft 4 kts
2026-05-06 03:28 39.85720 -104.67081 5369 ft 1 kts
2026-05-06 03:28 39.85719 -104.67081 5371 ft 0 kts
2026-05-06 03:32 39.85729 -104.67089 5371 ft 4 kts 303°
2026-05-06 03:32 39.85703 -104.67121 5371 ft 7 kts 204°
2026-05-06 03:33 39.85663 -104.67184 5371 ft 14 kts 274°
2026-05-06 03:33 39.85654 -104.67319 5369 ft 16 kts 264°
2026-05-06 03:33 39.85663 -104.67469 5371 ft 17 kts 276°
2026-05-06 03:33 39.85670 -104.67634 5371 ft 19 kts 272°
2026-05-06 03:34 39.85673 -104.67811 5367 ft 20 kts 271°
2026-05-06 03:34 39.85671 -104.67998 5370 ft 21 kts 268°
2026-05-06 03:34 39.85670 -104.68040 5371 ft 0 kts 268°
2026-05-06 03:34 39.85669 -104.68070 5369 ft 13 kts 268°
2026-05-06 03:35 39.85690 -104.68195 5371 ft 15 kts 313°
2026-05-06 03:35 39.85797 -104.68199 5370 ft 18 kts 12°
2026-05-06 03:35 39.85875 -104.68222 5371 ft 5 kts 286°
2026-05-06 03:35 39.85883 -104.68278 5368 ft 7 kts 270°
2026-05-06 03:36 39.85883 -104.68298 5371 ft 0 kts 270°
2026-05-06 03:40 39.85883 -104.68310 5371 ft 11 kts 270°
2026-05-06 03:40 39.85863 -104.68386 5371 ft 15 kts 216°
2026-05-06 03:40 39.85756 -104.68373 5369 ft 17 kts 178°
2026-05-06 03:41 39.85634 -104.68385 5370 ft 18 kts 187°
2026-05-06 03:41 39.85500 -104.68398 5370 ft 20 kts 181°
2026-05-06 03:41 39.85305 -104.68402 5371 ft 22 kts 181°
2026-05-06 03:41 39.85211 -104.68424 5371 ft 20 kts 240°
2026-05-06 03:42 39.85201 -104.68615 5367 ft 22 kts 268°
2026-05-06 03:42 39.85198 -104.68818 5369 ft 23 kts 269°
2026-05-06 03:42 39.85197 -104.69034 5369 ft 24 kts 270°
2026-05-06 03:42 39.85197 -104.69261 5369 ft 26 kts 270°
2026-05-06 03:43 39.85198 -104.69480 5368 ft 20 kts 270°
2026-05-06 03:43 39.85199 -104.69630 5371 ft 9 kts 272°
2026-05-06 03:43 39.85242 -104.69666 5371 ft 0 kts 358°
2026-05-06 03:44 39.85243 -104.69666 5371 ft 0 kts 358°
2026-05-06 03:44 39.85323 -104.69663 5370 ft 42 kts
2026-05-06 03:44 39.85882 -104.69653 5374 ft 116 kts
2026-05-06 03:45 39.86890 -104.69637 5371 ft 166 kts
2026-05-06 03:45 39.88121 -104.69616 5679 ft 180 kts 360°
2026-05-06 03:45 39.89370 -104.69681 6293 ft 179 kts 351°
2026-05-06 03:45 39.90530 -104.70323 6702 ft 191 kts 322°
2026-05-06 03:46 39.91331 -104.71778 6995 ft 210 kts 290°
2026-05-06 03:46 39.91427 -104.73760 7231 ft 235 kts 253°
2026-05-06 03:46 39.90718 -104.75745 7548 ft 256 kts 238°
2026-05-06 03:46 39.89899 -104.77895 7977 ft 275 kts 250°
2026-05-06 03:47 39.89330 -104.80323 8616 ft 284 kts 253°
2026-05-06 03:47 39.88773 -104.82826 9304 ft 291 kts 253°
2026-05-06 03:47 39.88199 -104.85363 10049 ft 294 kts 253°
2026-05-06 03:47 39.87601 -104.87973 10576 ft 308 kts 252°
2026-05-06 03:48 39.86966 -104.90702 11022 ft 322 kts 252°
2026-05-06 03:48 39.86304 -104.93515 11702 ft 327 kts 252°
2026-05-06 03:48 39.85645 -104.96303 12470 ft 328 kts 252°
2026-05-06 03:48 39.84964 -104.99192 13283 ft 328 kts 252°
2026-05-06 03:49 39.84300 -105.02036 14112 ft 327 kts 252°
2026-05-06 03:49 39.83633 -105.04867 14938 ft 327 kts 253°
2026-05-06 03:49 39.82963 -105.07700 15761 ft 326 kts 253°
2026-05-06 03:49 39.82296 -105.10525 16527 ft 327 kts 253°
2026-05-06 03:50 39.81626 -105.13350 17259 ft 327 kts 254°
2026-05-06 03:50 39.80955 -105.16183 17980 ft 328 kts 254°
2026-05-06 03:50 39.80281 -105.19022 18693 ft 328 kts 254°
2026-05-06 03:50 39.79613 -105.21823 19318 ft 330 kts 254°
2026-05-06 03:51 39.78930 -105.24685 19921 ft 332 kts 254°
2026-05-06 03:51 39.78244 -105.27560 20503 ft 334 kts 254°
2026-05-06 03:51 39.77549 -105.30468 21063 ft 337 kts 253°
2026-05-06 03:51 39.76852 -105.33388 21582 ft 340 kts 253°
2026-05-06 03:52 39.76143 -105.36341 22085 ft 343 kts 253°
2026-05-06 03:52 39.75423 -105.39319 22594 ft 346 kts 253°
2026-05-06 03:52 39.74694 -105.42314 23077 ft 349 kts 253°
2026-05-06 03:52 39.73963 -105.45339 23551 ft 352 kts 253°
2026-05-06 03:53 39.73232 -105.48391 24019 ft 355 kts 253°
2026-05-06 03:53 39.72492 -105.51462 24484 ft 357 kts 253°
2026-05-06 03:53 39.71738 -105.54550 24928 ft 359 kts 253°
2026-05-06 03:53 39.70981 -105.57657 25346 ft 363 kts 253°
2026-05-06 03:54 39.70222 -105.60793 25781 ft 365 kts 253°
2026-05-06 03:54 39.69466 -105.63942 26195 ft 367 kts 253°
2026-05-06 03:54 39.68777 -105.67138 26605 ft 368 kts 258°
2026-05-06 03:54 39.68300 -105.70407 26988 ft 371 kts 259°
2026-05-06 03:55 39.67858 -105.73715 27345 ft 373 kts 260°
2026-05-06 03:55 39.67420 -105.77002 27705 ft 375 kts 260°
2026-05-06 03:55 39.66961 -105.80385 28074 ft 377 kts 260°
2026-05-06 03:55 39.66509 -105.83702 28414 ft 379 kts 260°
2026-05-06 03:56 39.66046 -105.87083 28759 ft 381 kts 260°
2026-05-06 03:56 39.65581 -105.90478 29103 ft 382 kts 260°
2026-05-06 03:56 39.65112 -105.93887 29440 ft 384 kts 260°
2026-05-06 03:56 39.64640 -105.97307 29750 ft 386 kts 260°
2026-05-06 03:57 39.64164 -106.00741 30042 ft 388 kts 260°
2026-05-06 03:57 39.63686 -106.04191 30317 ft 390 kts 260°
2026-05-06 03:57 39.63200 -106.07667 30576 ft 393 kts 260°
2026-05-06 03:57 39.62721 -106.11127 30818 ft 395 kts 260°
2026-05-06 03:58 39.62238 -106.14643 31059 ft 397 kts 260°
2026-05-06 03:58 39.61750 -106.18166 31343 ft 397 kts 260°
2026-05-06 03:58 39.61257 -106.21692 31682 ft 397 kts 260°
2026-05-06 03:58 39.60762 -106.25218 32003 ft 396 kts 260°
2026-05-06 03:59 39.60265 -106.28732 32333 ft 396 kts 260°
2026-05-06 03:59 39.59774 -106.32239 32637 ft 395 kts 260°
2026-05-06 03:59 39.59279 -106.35745 32932 ft 394 kts 260°
2026-05-06 03:59 39.58783 -106.39231 33212 ft 394 kts 260°
2026-05-06 04:00 39.58290 -106.42677 33480 ft 394 kts 260°
2026-05-06 04:00 39.57796 -106.46155 33756 ft 392 kts 260°
2026-05-06 04:00 39.57298 -106.49644 33977 ft 392 kts 260°
2026-05-06 04:00 39.56802 -106.53112 34022 ft 392 kts 260°
2026-05-06 04:01 39.55803 -106.60044 33979 ft 391 kts 260°
2026-05-06 04:01 39.54732 -106.66968 33953 ft 391 kts 255°
2026-05-06 04:02 39.52802 -106.73576 33940 ft 392 kts 249°
2026-05-06 04:02 39.50744 -106.80053 33951 ft 392 kts 250°
2026-05-06 04:03 39.48663 -106.86661 33940 ft 393 kts 250°
2026-05-06 04:03 39.46612 -106.93178 33941 ft 393 kts 250°
2026-05-06 04:04 39.44542 -106.99734 33942 ft 393 kts 250°
2026-05-06 04:04 39.42467 -107.06297 33959 ft 394 kts 250°
2026-05-06 04:05 39.40381 -107.12859 33968 ft 395 kts 250°
2026-05-06 04:05 39.38299 -107.19402 33987 ft 396 kts 249°
2026-05-06 04:06 39.35977 -107.25866 33997 ft 397 kts 247°
2026-05-06 04:06 39.33584 -107.32300 34010 ft 398 kts 247°
2026-05-06 04:07 39.31192 -107.38748 34020 ft 398 kts 247°
2026-05-06 04:07 39.28794 -107.45193 34017 ft 399 kts 247°
2026-05-06 04:08 39.26378 -107.51668 34008 ft 400 kts 247°
2026-05-06 04:08 39.23958 -107.58139 33993 ft 400 kts 247°
2026-05-06 04:09 39.21535 -107.64612 33976 ft 401 kts 247°
2026-05-06 04:09 39.19093 -107.71083 33965 ft 401 kts 247°
2026-05-06 04:10 39.16682 -107.77517 33953 ft 401 kts 247°
2026-05-06 04:10 39.14245 -107.83997 33902 ft 401 kts 246°
2026-05-06 04:11 39.11804 -107.90457 33898 ft 401 kts 246°
2026-05-06 04:11 39.09363 -107.96911 33891 ft 401 kts 246°
2026-05-06 04:12 39.06914 -108.03369 33877 ft 403 kts 246°
2026-05-06 04:12 39.04420 -108.09924 33878 ft 410 kts 246°
2026-05-06 04:13 39.01939 -108.16444 33870 ft 411 kts 246°
2026-05-06 04:13 38.99405 -108.23078 33874 ft 411 kts 246°
2026-05-06 04:14 38.96879 -108.29677 33869 ft 411 kts 246°
2026-05-06 04:14 38.94349 -108.36271 33871 ft 411 kts 246°
2026-05-06 04:15 38.91818 -108.42857 33869 ft 411 kts 246°
2026-05-06 04:15 38.89280 -108.49448 33868 ft 412 kts 246°
2026-05-06 04:16 38.86754 -108.56000 33876 ft 412 kts 246°
2026-05-06 04:16 38.84207 -108.62578 33895 ft 413 kts 245°
2026-05-06 04:17 38.81647 -108.69183 33902 ft 414 kts 246°
2026-05-06 04:17 38.79078 -108.75795 33908 ft 414 kts 245°
2026-05-06 04:18 38.76525 -108.82345 33916 ft 415 kts 245°
2026-05-06 04:18 38.73923 -108.89009 33931 ft 416 kts 245°
2026-05-06 04:19 38.71355 -108.95583 33954 ft 417 kts 245°
2026-05-06 04:19 38.68737 -109.02263 33930 ft 418 kts 245°
2026-05-06 04:20 38.66110 -109.08958 33937 ft 420 kts 245°
2026-05-06 04:20 38.63477 -109.15649 33934 ft 422 kts 245°
2026-05-06 04:21 38.60825 -109.22363 33923 ft 424 kts 245°
2026-05-06 04:21 38.58160 -109.29102 33914 ft 425 kts 245°
2026-05-06 04:22 38.55483 -109.35866 33909 ft 427 kts 245°
2026-05-06 04:23 38.51440 -109.46046 33908 ft 430 kts 245°
2026-05-06 04:23 38.48739 -109.52828 33898 ft 432 kts 244°
2026-05-06 04:24 38.45988 -109.59663 33893 ft 434 kts 244°
2026-05-06 04:24 38.43247 -109.66518 33885 ft 435 kts 244°
2026-05-06 04:25 38.40491 -109.73428 33888 ft 437 kts 244°
2026-05-06 04:25 38.37721 -109.80329 33892 ft 438 kts 244°
2026-05-06 04:26 38.34937 -109.87239 33895 ft 439 kts 244°
2026-05-06 04:26 38.32135 -109.94172 33886 ft 440 kts 244°
2026-05-06 04:27 38.29355 -110.01051 33886 ft 440 kts 244°
2026-05-06 04:27 38.26746 -110.08118 33895 ft 441 kts 247°
2026-05-06 04:28 38.24275 -110.15267 33898 ft 441 kts 247°
2026-05-06 04:28 38.22219 -110.21218 33891 ft 441 kts 247°
2026-05-06 04:29 38.19736 -110.28360 33887 ft 442 kts 247°
2026-05-06 04:29 38.17257 -110.35490 33890 ft 442 kts 247°
2026-05-06 04:30 38.14762 -110.42646 33885 ft 442 kts 247°
2026-05-06 04:30 38.12258 -110.49800 33867 ft 443 kts 247°
2026-05-06 04:31 38.09767 -110.56898 33886 ft 443 kts 247°
2026-05-06 04:31 38.07252 -110.64059 33884 ft 444 kts 248°
2026-05-06 04:32 38.04729 -110.71222 33878 ft 445 kts 248°
2026-05-06 04:32 38.02195 -110.78392 33895 ft 446 kts 248°
2026-05-06 04:33 37.99645 -110.85589 33893 ft 447 kts 248°
2026-05-06 04:33 37.97122 -110.92692 33893 ft 441 kts 246°
2026-05-06 04:34 37.94592 -110.99799 33893 ft 441 kts 246°
2026-05-06 04:34 37.92065 -111.06884 33865 ft 442 kts 247°
2026-05-06 04:35 37.89525 -111.13988 33873 ft 443 kts 247°
2026-05-06 04:35 37.86984 -111.21074 33885 ft 445 kts 247°
2026-05-06 04:36 37.84419 -111.28206 33914 ft 446 kts 247°
2026-05-06 04:36 37.81831 -111.35389 33923 ft 449 kts 247°
2026-05-06 04:37 37.79236 -111.42586 33948 ft 451 kts 247°
2026-05-06 04:37 37.76620 -111.49811 33976 ft 452 kts 247°
2026-05-06 04:38 37.73992 -111.57054 33995 ft 454 kts 247°
2026-05-06 04:38 37.71352 -111.64322 34002 ft 456 kts 247°
2026-05-06 04:39 37.68692 -111.71615 33999 ft 458 kts 247°
2026-05-06 04:39 37.66042 -111.78868 34000 ft 458 kts 247°
2026-05-06 04:40 37.63365 -111.86182 34006 ft 459 kts 247°
2026-05-06 04:40 37.60681 -111.93496 34017 ft 459 kts 247°
2026-05-06 04:41 37.57988 -112.00808 34018 ft 458 kts 247°
2026-05-06 04:41 37.55285 -112.08132 34017 ft 461 kts 247°
2026-05-06 04:42 37.52381 -112.15331 34019 ft 463 kts 239°
2026-05-06 04:42 37.48865 -112.22123 34031 ft 462 kts 238°
2026-05-06 04:43 37.45369 -112.28841 34023 ft 461 kts 238°
2026-05-06 04:43 37.41840 -112.35635 34019 ft 460 kts 238°
2026-05-06 04:44 37.38343 -112.42352 34021 ft 459 kts 238°
2026-05-06 04:44 37.34871 -112.49003 34005 ft 459 kts 238°
2026-05-06 04:45 37.31373 -112.55715 34001 ft 458 kts 238°
2026-05-06 04:45 37.27897 -112.62370 33907 ft 446 kts 238°
2026-05-06 04:45 37.26206 -112.65597 33510 ft 439 kts 238°
2026-05-06 04:46 37.24534 -112.68780 32947 ft 435 kts 238°
2026-05-06 04:46 37.22874 -112.71942 32325 ft 434 kts 238°
2026-05-06 04:46 37.21218 -112.75104 31709 ft 433 kts 238°
2026-05-06 04:46 37.19565 -112.78246 31096 ft 432 kts 238°
2026-05-06 04:47 37.17914 -112.81380 30490 ft 430 kts 239°
2026-05-06 04:47 37.16271 -112.84501 29906 ft 428 kts 239°
2026-05-06 04:47 37.14622 -112.87625 29330 ft 427 kts 239°
2026-05-06 04:47 37.12993 -112.90709 28800 ft 423 kts 239°
2026-05-06 04:48 37.11373 -112.93776 28302 ft 420 kts 238°
2026-05-06 04:48 37.09797 -112.96760 27829 ft 415 kts 239°
2026-05-06 04:48 37.08178 -112.99816 27344 ft 411 kts 238°
2026-05-06 04:48 37.06623 -113.02747 26881 ft 407 kts 238°
2026-05-06 04:49 37.05068 -113.05679 26386 ft 403 kts 238°
2026-05-06 04:49 37.03528 -113.08584 25916 ft 398 kts 238°
2026-05-06 04:49 37.02002 -113.11461 25434 ft 394 kts 238°
2026-05-06 04:49 37.00490 -113.14305 24964 ft 390 kts 238°
2026-05-06 04:50 36.98998 -113.17111 24511 ft 386 kts 238°
2026-05-06 04:50 36.97508 -113.19910 24039 ft 382 kts 238°
2026-05-06 04:50 36.96042 -113.22657 23578 ft 378 kts 238°
2026-05-06 04:50 36.94588 -113.25381 23124 ft 374 kts 238°
2026-05-06 04:51 36.93143 -113.28088 22665 ft 371 kts 238°
2026-05-06 04:51 36.91713 -113.30764 22188 ft 368 kts 238°
2026-05-06 04:51 36.90315 -113.33378 21741 ft 364 kts 238°
2026-05-06 04:51 36.88915 -113.35998 21280 ft 361 kts 238°
2026-05-06 04:52 36.87527 -113.38589 20819 ft 358 kts 238°
2026-05-06 04:52 36.86149 -113.41162 20359 ft 354 kts 238°
2026-05-06 04:52 36.84782 -113.43711 19915 ft 351 kts 238°
2026-05-06 04:52 36.83457 -113.46180 19468 ft 347 kts 238°
2026-05-06 04:53 36.82094 -113.48719 19004 ft 344 kts 238°
2026-05-06 04:53 36.80762 -113.51195 18542 ft 341 kts 238°
2026-05-06 04:53 36.79450 -113.53643 18090 ft 338 kts 238°
2026-05-06 04:53 36.78154 -113.56056 17636 ft 334 kts 238°
2026-05-06 04:54 36.76863 -113.58463 17194 ft 331 kts 238°
2026-05-06 04:54 36.75591 -113.60836 16755 ft 328 kts 238°
2026-05-06 04:54 36.74328 -113.63187 16296 ft 324 kts 238°
2026-05-06 04:54 36.73078 -113.65508 15849 ft 321 kts 238°
2026-05-06 04:55 36.71840 -113.67811 15389 ft 317 kts 238°
2026-05-06 04:55 36.70617 -113.70087 14914 ft 314 kts 238°
2026-05-06 04:55 36.69407 -113.72339 14438 ft 311 kts 238°
2026-05-06 04:55 36.68211 -113.74563 13961 ft 307 kts 238°
2026-05-06 04:56 36.67043 -113.76730 13463 ft 304 kts 238°
2026-05-06 04:56 36.65870 -113.78901 12964 ft 300 kts 238°
2026-05-06 04:56 36.64708 -113.81051 12470 ft 297 kts 238°
2026-05-06 04:56 36.63561 -113.83172 11975 ft 294 kts 238°
2026-05-06 04:57 36.62423 -113.85277 11495 ft 290 kts 238°
2026-05-06 04:57 36.61303 -113.87352 10986 ft 288 kts 237°
2026-05-06 04:57 36.60187 -113.89417 10482 ft 286 kts 237°
2026-05-06 04:57 36.59074 -113.91467 9977 ft 285 kts 236°
2026-05-06 04:58 36.57895 -113.93450 9469 ft 284 kts 233°
2026-05-06 04:58 36.56703 -113.95369 8973 ft 282 kts 232°
2026-05-06 04:58 36.55503 -113.97297 8481 ft 280 kts 232°
2026-05-06 04:58 36.54316 -113.99205 7996 ft 279 kts 232°
2026-05-06 04:59 36.53138 -114.01097 7571 ft 277 kts 232°
2026-05-06 04:59 36.51953 -114.03004 7878 ft 278 kts 232°
2026-05-06 04:59 36.50768 -114.04912 8006 ft 279 kts 232°
2026-05-06 04:59 36.49580 -114.06827 8026 ft 279 kts 232°
2026-05-06 05:00 36.48390 -114.08741 8030 ft 280 kts 232°
2026-05-06 05:00 36.47202 -114.10653 8027 ft 280 kts 232°
2026-05-06 05:00 36.46015 -114.12561 8023 ft 279 kts 232°
2026-05-06 05:00 36.44823 -114.14476 8022 ft 280 kts 232°
2026-05-06 05:01 36.43632 -114.16388 8023 ft 280 kts 232°
2026-05-06 05:01 36.42438 -114.18301 8020 ft 280 kts 232°
2026-05-06 05:01 36.41248 -114.20212 8020 ft 280 kts 232°
2026-05-06 05:01 36.40059 -114.22120 8020 ft 280 kts 232°
2026-05-06 05:02 36.38866 -114.24023 8022 ft 280 kts 231°
2026-05-06 05:02 36.37659 -114.25917 8018 ft 279 kts 231°
2026-05-06 05:02 36.36465 -114.27784 8021 ft 279 kts 231°
2026-05-06 05:02 36.35257 -114.29677 8021 ft 279 kts 231°
2026-05-06 05:03 36.34051 -114.31567 8024 ft 280 kts 231°
2026-05-06 05:03 36.32842 -114.33462 8022 ft 279 kts 231°
2026-05-06 05:03 36.31637 -114.35349 8021 ft 280 kts 231°
2026-05-06 05:03 36.30839 -114.36600 8021 ft 279 kts 231°
2026-05-06 05:04 36.29343 -114.38941 8002 ft 279 kts 231°
2026-05-06 05:04 36.28134 -114.40826 8007 ft 279 kts 231°
2026-05-06 05:04 36.26924 -114.42717 8008 ft 279 kts 231°
2026-05-06 05:04 36.25722 -114.44593 8027 ft 280 kts 231°
2026-05-06 05:05 36.24503 -114.46479 8029 ft 279 kts 231°
2026-05-06 05:05 36.23281 -114.48350 8024 ft 279 kts 231°
2026-05-06 05:05 36.22058 -114.50225 8024 ft 279 kts 231°
2026-05-06 05:05 36.20851 -114.52078 8023 ft 280 kts 231°
2026-05-06 05:06 36.19629 -114.53952 7999 ft 280 kts 231°
2026-05-06 05:06 36.18390 -114.55850 7987 ft 280 kts 231°
2026-05-06 05:06 36.17183 -114.57700 7980 ft 280 kts 231°
2026-05-06 05:06 36.15958 -114.59573 7980 ft 280 kts 231°
2026-05-06 05:07 36.14735 -114.61440 7975 ft 280 kts 231°
2026-05-06 05:07 36.13506 -114.63313 7988 ft 280 kts 231°
2026-05-06 05:07 36.12303 -114.65147 7988 ft 266 kts 231°
2026-05-06 05:07 36.11180 -114.66852 7971 ft 246 kts 231°
2026-05-06 05:08 36.10150 -114.68425 7956 ft 223 kts 231°
2026-05-06 05:08 36.09208 -114.69869 7960 ft 213 kts 231°
2026-05-06 05:08 36.08276 -114.71296 7976 ft 213 kts 231°
2026-05-06 05:08 36.07445 -114.72808 7986 ft 213 kts 245°
2026-05-06 05:09 36.07037 -114.74556 7991 ft 214 kts 265°
2026-05-06 05:09 36.07040 -114.76336 7991 ft 215 kts 272°
2026-05-06 05:09 36.07155 -114.78172 7986 ft 213 kts 274°
2026-05-06 05:09 36.07260 -114.79961 7641 ft 210 kts 272°
2026-05-06 05:10 36.07331 -114.81784 7189 ft 209 kts 271°
2026-05-06 05:10 36.07375 -114.83575 6752 ft 209 kts 269°
2026-05-06 05:10 36.07383 -114.85361 6405 ft 205 kts 269°
2026-05-06 05:10 36.07383 -114.87027 6133 ft 193 kts 269°
2026-05-06 05:11 36.07382 -114.88681 5979 ft 193 kts 269°
2026-05-06 05:11 36.07381 -114.90344 5725 ft 194 kts 269°
2026-05-06 05:11 36.07380 -114.92016 5432 ft 194 kts 269°
2026-05-06 05:11 36.07378 -114.93687 5142 ft 194 kts 269°
2026-05-06 05:12 36.07378 -114.95294 4856 ft 183 kts 269°
2026-05-06 05:12 36.07376 -114.96908 4589 ft 190 kts 269°
2026-05-06 05:12 36.07375 -114.98539 4324 ft 190 kts 269°
2026-05-06 05:12 36.07375 -115.00167 4065 ft 189 kts 269°
2026-05-06 05:13 36.07374 -115.01795 3807 ft 188 kts 269°
2026-05-06 05:13 36.07372 -115.03410 3553 ft 188 kts 269°
2026-05-06 05:13 36.07371 -115.05013 3298 ft 181 kts 269°
2026-05-06 05:13 36.07370 -115.06471 3057 ft 160 kts 268°
2026-05-06 05:14 36.07370 -115.07754 2850 ft 139 kts 267°
2026-05-06 05:14 36.07368 -115.08974 2691 ft 148 kts 268°
2026-05-06 05:14 36.07366 -115.10262 2512 ft 151 kts 268°
2026-05-06 05:14 36.07361 -115.11143 2434 ft 156 kts 268°
2026-05-06 05:15 36.07358 -115.12934 2196 ft 150 kts 267°
2026-05-06 05:15 36.07358 -115.13726 2193 ft 123 kts 274°
2026-05-06 05:15 36.07368 -115.14685 2197 ft 35 kts 273°
2026-05-06 05:15 36.07429 -115.14964 2196 ft 33 kts 297°
2026-05-06 05:16 36.07553 -115.15161 2196 ft 29 kts 325°
2026-05-06 05:16 36.07679 -115.15234 2195 ft 28 kts 337°
2026-05-06 05:16 36.07748 -115.15270 2198 ft 10 kts 337°
2026-05-06 05:16 36.07816 -115.15304 2195 ft 12 kts 339°
2026-05-06 05:17 36.07880 -115.15264 2194 ft 14 kts 92°
2026-05-06 05:17 36.07872 -115.15139 2197 ft 16 kts 86°
2026-05-06 05:17 36.07865 -115.14996 2193 ft 18 kts 102°